Flag for French Southern Territories Weather past 2 weeks in Amsterdam Island, French Southern Territories

Now
54 °F

Cool.


Feels Like: 51 °F
Forecast: 53 / 57 °F
Wind: 12 mph from Southwest

Location: Martin De Vivies Ile Amsterdam

Current Time: Sep 2, 2015 at 2:08:40 PM

Latest Report: Sep 2, 2015 at 1:00 PM


Visibility: N/A

Pressure: 30.22 "Hg

Humidity: 65%

Dew point: 43 °F

Location of Amsterdam IslandLocation

Historic Weather in Amsterdam Island — Graph

°F

Amsterdam Island temperature yesterday

Maximum temperature yesterday: 56 °F (at 12:00 AM)
Minimum temperature yesterday: 46 °F (at 9:00 PM)
Average temperature yesterday: 48 °F

Past Weeks' High & Low Weather Summary

 TemperatureHumidityPressure
High63 °F (Aug 22, 12:00 PM)97% (Aug 22, 12:00 AM)30.50 "Hg (Aug 22, 12:00 AM)
Low43 °F (Aug 26, 4:00 AM)56% (Aug 25, 8:00 PM)29.72 "Hg (Aug 27, 4:00 AM)
Average53 °F84%30.15 "Hg
* Reported Aug 18 12:00 Noon — Sep 2 12:00 Noon, Amsterdam Island, Weather by CustomWeather, © 2015

Note: Actual official high and low records may vary slightly from our data, if they occured in-between our weather recording intervals... More about our weather records

Advertising

Amsterdam Island weather history for previous 24 hours

 ConditionsComfort  
Time TempWeatherWind HumidityBarometerVisibility
12:00 PM
Wed, Sep 2
55 °FCool.12 mph60%30.24 "HgN/A
11:00 AM51 °FCool.12 mph77%30.25 "HgN/A
10:00 AM53 °FCool.10 mph71%30.26 "HgN/A
8:00 AM50 °FCool.8 mph72%30.27 "HgN/A
7:00 AM48 °FCool.7 mph72%30.27 "HgN/A
6:00 AM46 °FCool.10 mph74%30.25 "HgN/A
5:00 AM45 °FCool.12 mph75%30.24 "HgN/A
4:00 AM44 °FQuite cool.12 mph68%30.23 "HgN/A
2:00 AM45 °FCool.15 mph75%30.23 "HgN/A
1:00 AM46 °FCool.15 mph83%30.24 "HgN/A
12:00 AM46 °FCool.14 mph82%30.22 "HgN/A
11:00 PM
Tue, Sep 1
46 °FCool.15 mph80%30.22 "HgN/A
10:00 PM46 °FCool.12 mph80%30.21 "HgN/A
9:00 PM46 °FCool.16 mph83%30.20 "HgN/A
8:00 PM46 °FCool.16 mph84%30.18 "HgN/A
7:00 PM46 °FCool.16 mph78%30.16 "HgN/A
6:00 PM46 °FCool.20 mph77%30.14 "HgN/A
5:00 PM46 °FCool.17 mph74%30.12 "HgN/A
4:00 PM48 °FCool.18 mph61%30.09 "HgN/A
3:00 PM49 °FCool.18 mph61%30.08 "HgN/A
2:00 PM51 °FCool.21 mph63%30.06 "HgN/A
Weather by CustomWeather, © 2015

See weather overviewHow to use our weather pages